Het weer op Woensdrecht:2014/10/24 07:29 EHWO 240729Z AUTO 19007KT 9999 -DZ FEW015TCU SCT025 BKN028 OVC034 11/10 Q1018 BLU 19008KT 8000 -RADZ FEW018 BKN025 OVC035 TEMPO RA SCT008 SCT018 BKN025
Het weer op Amsterdam:2014/10/24 07:25 EHAM 240725Z 17011KT 9999 FEW016 BKN032 11/09 Q1018 TEMPO 7000 BKN013

Menu promotie
· De club
· Motor(zweefvliegen) bij de ACV
· De vloot
· Kennismaken met de ACV


Buien Radar


Picasa foto link
ACV externe fotolink


Inloggen voor leden
WelkomAnonymous!


Lid nummer    
Wachtwoord 
Code: Code
Type Code in
[Wachtwoord vergeten?]


 
Sorry, deze module is niet actief (acv_addon_4)

[ Ga terug ]
copyright (c) ACV 2006 - 2014

All logos and trademarks in this site are property of their respective owner. The comments are property of their posters, all the rest 2005 by me.
PHP-Nuke Copyright © 2005 by Francisco Burzi. This is free software, and you may redistribute it under the GPL. PHP-Nuke comes with absolutely no warranty, for details, see the license.
Pagina Rendering: 0.06 Seconden